OK3MS-5 Weather Reports


Display with metric or nautical units.
time (UTC)temp
F
wind
direction
speed
MPH
gust
MPH
rain 1hr
in
rain 24hr
in
rain mn
in
humidity
%
barometer
mb
20260507052004 51 204 0.0 2.0 0.00 0.00 0.00 88 1010.4
20260507051503 51 216 0.0 3.0 0.00 0.00 0.00 88 1010.4
20260507051004 51 180 2.0 6.0 0.00 0.00 0.00 88 1010.4
20260507050505 51 222 0.0 6.0 0.00 0.00 0.00 89 1010.4
20260507050008 50 180 0.0 5.0 0.00 0.00 0.00 89 1010.2
20260507045504 50 195 1.0 6.0 0.00 0.00 0.00 89 1010.2
20260507045005 50 174 2.0 6.0 0.00 0.00 0.00 89 1010.2
20260507044502 50 162 3.0 4.0 0.00 0.00 0.00 90 1010.2
20260507044002 50 156 3.0 8.0 0.00 0.00 0.00 90 1010.1
20260507043505 50 201 3.0 5.0 0.00 0.00 0.00 90 1010.0
20260507043005 50 192 5.0 5.0 0.00 0.00 0.00 90 1009.9
20260507042503 50 186 1.0 2.0 0.00 0.00 0.00 90 1010.0
20260507042004 50 192 1.0 4.0 0.00 0.00 0.00 91 1009.8
20260507041502 50 174 4.0 5.0 0.00 0.00 0.00 91 1009.6
20260507041004 50 198 2.0 3.0 0.00 0.00 0.00 91 1009.6
20260507040511 50 198 1.0 4.0 0.00 0.00 0.00 91 1009.7
20260507040002 50 192 0.0 3.0 0.00 0.00 0.00 91 1009.6
20260507035509 50 156 3.0 6.0 0.00 0.00 0.00 91 1009.5
20260507035007 50 168 5.0 6.0 0.00 0.00 0.00 91 1009.3
20260507034503 50 180 1.0 4.0 0.00 0.00 0.00 91 1009.3
20260507034007 51 168 0.0 3.0 0.00 0.00 0.00 91 1009.3
20260507033502 51 144 1.0 5.0 0.00 0.00 0.00 91 1009.2
20260507033004 51 174 2.0 4.0 0.00 0.00 0.00 91 1009.1
20260507032504 51 180 0.0 7.0 0.00 0.00 0.00 91 1008.9
20260507032003 51 166 3.0 3.0 0.00 0.00 0.00 90 1009.0
20260507031503 51 172 3.0 3.0 0.00 0.00 0.00 91 1008.8
20260507031004 51 155 1.0 5.0 0.00 0.00 0.00 90 1008.8
20260507030509 51 150 1.0 7.0 0.00 0.00 0.00 90 1008.8
20260507030005 51 162 3.0 4.0 0.00 0.00 0.00 90 1008.8
20260507025003 51 224 3.0 3.0 0.00 0.00 0.00 91 1008.7
20260507024508 51 224 0.0 1.0 0.00 0.00 0.00 90 1008.7
20260507024002 52 224 0.0 1.0 0.00 0.00 0.00 89 1008.6
20260507023509 52 224 0.0 3.0 0.00 0.00 0.00 90 1008.7
20260507023004 52 213 0.0 2.0 0.00 0.00 0.00 89 1008.7
20260507022510 52 216 0.0 2.0 0.00 0.00 0.00 89 1008.7
20260507022003 53 218 0.0 2.0 0.00 0.00 0.00 89 1008.6
20260507021002 53 210 0.0 2.0 0.00 0.00 0.00 90 1008.5
20260507020512 53 201 1.0 1.0 0.00 0.00 0.00 90 1008.4
20260507020002 53 192 0.0 2.0 0.00 0.00 0.00 91 1008.4
20260507015503 53 192 0.0 2.0 0.00 0.00 0.00 90 1008.2
20260507015009 53 178 2.0 2.0 0.00 0.00 0.00 91 1008.3
20260507014503 53 178 1.0 1.0 0.00 0.00 0.00 91 1008.3
20260507014003 53 174 0.0 1.0 0.00 0.00 0.00 91 1008.2
20260507013503 53 174 0.0 1.0 0.00 0.00 0.00 91 1008.1
20260507013002 53 168 0.0 2.0 0.00 0.00 0.00 91 1008.1
20260507012506 53 198 0.0 2.0 0.00 0.00 0.00 91 1007.9
20260507012003 54 198 0.0 1.0 0.00 0.00 0.00 91 1007.9
20260507011502 54 198 0.0 3.0 0.00 0.00 0.00 90 1007.8
20260507011004 54 198 1.0 2.0 0.00 0.00 0.00 89 1007.8
20260507010506 54 198 5.0 5.0 0.00 0.00 0.00 88 1007.8
20260507010004 54 222 1.0 1.0 0.00 0.00 0.00 88 1007.8
20260507005503 54 222 1.0 3.0 0.00 0.00 0.00 88 1007.8
20260507005002 54 289 1.0 4.0 0.00 0.00 0.00 88 1007.8
20260507004506 54 250 2.0 4.0 0.00 0.00 0.00 89 1007.8
20260507004003 54 244 3.0 5.0 0.00 0.00 0.00 89 1007.8
20260507003507 54 237 1.0 7.0 0.00 0.00 0.00 90 1007.6
20260507003004 54 240 4.0 4.0 0.00 0.00 0.00 90 1007.6
20260507002508 54 240 0.0 4.0 0.00 0.00 0.00 90 1007.5
20260507002004 54 228 2.0 3.0 0.00 0.00 0.00 91 1007.5
20260507001506 54 234 0.0 5.0 0.00 0.00 0.00 91 1007.5
20260507001003 53 219 1.0 3.0 0.00 0.00 0.00 92 1007.5
20260507000502 53 219 1.0 2.0 0.00 0.00 0.00 93 1007.6
20260507000003 53 219 0.0 0.0 0.00 0.00 0.00 93 1007.5
20260506235503 53 219 0.0 0.0 0.00 0.00 0.00 93 1007.5
20260506235003 54 219 0.0 1.0 0.00 0.00 0.00 93 1007.6
20260506234503 54 219 1.0 3.0 0.00 0.00 0.00 93 1007.4
20260506234003 54 219 0.0 2.0 0.00 0.00 0.00 93 1007.4
20260506233504 54 219 0.0 2.0 0.00 0.00 0.00 93 1007.5
20260506233007 54 219 0.0 0.0 0.00 0.00 0.00 93 1007.4
20260506232502 54 219 0.0 1.0 0.00 0.00 0.00 94 1007.5
20260506232009 54 219 0.0 0.0 0.00 0.00 0.00 94 1007.4
20260506231506 54 219 0.0 2.0 0.00 0.00 0.00 94 1007.4
20260506231007 54 219 0.0 3.0 0.00 0.00 0.00 94 1007.4
20260506230506 54 219 3.0 4.0 0.00 0.00 0.00 94 1007.3
20260506230008 54 207 2.0 3.0 0.00 0.00 0.00 93 1007.2
20260506225502 54 233 1.0 4.0 0.00 0.00 0.00 94 1007.2
20260506225008 54 253 5.0 6.0 0.00 0.00 0.00 94 1007.2
20260506224502 54 219 0.0 2.0 0.00 0.00 0.00 94 1007.0
20260506224004 54 240 4.0 6.0 0.00 0.00 0.00 94 1007.0
20260506223508 54 228 3.0 6.0 0.00 0.00 0.00 93 1006.8
20260506223003 55 210 3.0 4.0 0.00 0.00 0.00 93 1006.8
20260506222509 55 252 3.0 6.0 0.00 0.00 0.00 93 1006.7
20260506222002 55 174 2.0 4.0 0.00 0.00 0.00 92 1006.7
20260506221504 55 132 0.0 4.0 0.00 0.00 0.00 92 1006.5
20260506221008 55 186 1.0 1.0 0.00 0.00 0.00 93 1006.5
20260506220510 55 186 0.0 3.0 0.00 0.00 0.00 93 1006.3
20260506220010 55 238 1.0 3.0 0.00 0.00 0.00 94 1006.0
20260506215510 55 246 1.0 3.0 0.00 0.00 0.00 94 1006.0
20260506215004 55 252 0.0 7.0 0.00 0.00 0.00 94 1006.0
20260506214002 55 232 2.0 6.0 0.00 0.00 0.00 93 1006.0
20260506213508 55 222 3.0 6.0 0.00 0.00 0.00 93 1005.9
20260506213003 55 223 0.0 4.0 0.00 0.00 0.00 93 1005.8
20260506212509 55 210 0.0 7.0 0.00 0.00 0.00 93 1005.8
20260506212004 56 204 0.0 6.0 0.00 0.00 0.00 93 1005.6
20260506211002 55 341 0.0 4.0 0.00 0.00 0.00 92 1004.8
20260506210509 55 341 0.0 6.0 0.00 0.00 0.00 93 1004.6
20260506210003 55 340 5.0 9.0 0.00 0.00 0.00 93 1004.6
20260506205507 55 356 3.0 4.0 0.00 0.00 0.00 93 1004.8
20260506205002 55 307 0.0 4.0 0.00 0.00 0.00 92 1005.1
20260506204509 55 251 1.0 3.0 0.00 0.00 0.00 92 1005.0
20260506204002 55 266 2.0 7.0 0.00 0.00 0.00 92 1004.9
20260506203505 55 286 0.0 7.0 0.00 0.00 0.00 92 1005.1
20260506203002 55 277 1.0 9.0 0.00 0.00 0.00 91 1005.2
20260506202505 55 264 6.0 15.0 0.00 0.00 0.00 91 1005.2
20260506202002 56 276 1.0 14.0 0.00 0.00 0.00 91 1005.1
20260506201503 56 240 5.0 10.0 0.00 0.00 0.00 91 1005.1
20260506201004 56 282 11.0 12.0 0.00 0.00 0.00 92 1005.0
20260506200504 56 239 15.0 18.0 0.00 0.00 0.00 92 1004.8
20260506200004 57 288 11.0 13.0 0.00 0.00 0.00 90 1004.5
20260506195510 57 272 5.0 14.0 0.00 0.00 0.00 89 1004.6
20260506195007 58 300 5.0 14.0 0.00 0.00 0.00 87 1004.5
20260506194504 59 258 8.0 9.0 0.00 0.00 0.00 84 1004.3
20260506193502 61 162 6.0 14.0 0.00 0.00 0.00 77 1003.4
20260506193009 62 245 8.0 13.0 0.00 0.00 0.00 71 1002.6
20260506192502 63 168 0.0 7.0 0.00 0.00 0.00 60 1002.4
20260506192005 62 155 6.0 7.0 0.00 0.00 0.00 59 1002.0
20260506191511 61 116 0.0 0.0 0.00 0.00 0.00 63 1001.8
20260506191003 60 116 0.0 0.0 0.00 0.00 0.00 62 1001.8
20260506190506 60 116 0.0 0.0 0.00 0.00 0.00 69 1001.8
20260506190004 60 116 0.0 0.0 0.00 0.00 0.00 68 1001.7
20260506185508 60 116 0.0 0.0 0.00 0.00 0.00 68 1001.7
20260506185003 60 116 0.0 0.0 0.00 0.00 0.00 67 1001.6
20260506184003 60 116 0.0 0.0 0.00 0.00 0.00 67 1001.4
20260506183508 60 116 0.0 0.0 0.00 0.00 0.00 68 1001.3
20260506183003 61 116 0.0 0.0 0.00 0.00 0.00 68 1001.3
20260506182510 61 116 0.0 0.0 0.00 0.00 0.00 69 1001.2
20260506182002 62 116 0.0 0.0 0.00 0.00 0.00 66 1001.0
20260506181511 62 116 0.0 0.0 0.00 0.00 0.00 64 1000.9
20260506181003 62 116 0.0 0.0 0.00 0.00 0.00 68 1000.8
20260506180504 63 116 0.0 0.0 0.00 0.00 0.00 65 1000.6
20260506180005 63 116 0.0 0.0 0.00 0.00 0.00 66 1000.6
20260506175509 65 116 0.0 0.0 0.00 0.00 0.00 56 1000.4
20260506175005 66 116 0.0 0.0 0.00 0.00 0.00 54 1000.3
20260506174502 67 116 0.0 0.0 0.00 0.00 0.00 52 1000.2
20260506174009 67 116 0.0 1.0 0.00 0.00 0.00 51 1000.2
20260506173503 67 116 0.0 0.0 0.00 0.00 0.00 51 1000.2
20260506173004 68 116 0.0 1.0 0.00 0.00 0.00 52 1000.0
20260506172509 68 116 0.0 1.0 0.00 0.00 0.00 51 1000.0
20260506172002 68 116 0.0 1.0 0.00 0.00 0.00 50 1000.1
20260506171513 69 116 0.0 2.0 0.00 0.00 0.00 50 1000.0
20260506171002 69 117 2.0 3.0 0.00 0.00 0.00 49 1000.0
20260506170504 69 134 0.0 0.0 0.00 0.00 0.00 49 999.9
20260506170004 69 134 0.0 1.0 0.00 0.00 0.00 49 1000.1
20260506165504 70 134 0.0 1.0 0.00 0.00 0.00 48 1000.0
20260506165003 70 134 1.0 6.0 0.00 0.00 0.00 48 1000.2
20260506164504 70 48 0.0 4.0 0.00 0.00 0.00 49 1000.2
20260506164003 70 165 2.0 5.0 0.00 0.00 0.00 47 1000.2
20260506163503 71 128 6.0 7.0 0.00 0.00 0.00 47 1000.2
20260506163003 72 138 4.0 7.0 0.00 0.00 0.00 47 1000.1
20260506162504 71 155 5.0 9.0 0.00 0.00 0.00 46 1000.1
20260506162005 71 92 2.0 7.0 0.00 0.00 0.00 47 1000.3
20260506161502 71 115 0.0 11.0 0.00 0.00 0.00 47 1000.4
20260506161004 71 180 9.0 10.0 0.00 0.00 0.00 47 1000.4
20260506160504 71 138 2.0 10.0 0.00 0.00 0.00 48 1000.5
20260506160004 71 148 7.0 8.0 0.00 0.00 0.00 47 1000.6
20260506155503 71 126 0.0 7.0 0.00 0.00 0.00 47 1000.5
20260506155004 72 121 2.0 8.0 0.00 0.00 0.00 47 1000.6
20260506154506 71 110 2.0 9.0 0.00 0.00 0.00 48 1000.6
20260506154004 72 78 3.0 10.0 0.00 0.00 0.00 48 1000.6
20260506153504 73 152 5.0 11.0 0.00 0.00 0.00 45 1000.5
20260506153004 72 154 7.0 9.0 0.00 0.00 0.00 48 1000.7
20260506152505 72 77 3.0 8.0 0.00 0.00 0.00 48 1000.8
20260506152004 71 49 7.0 9.0 0.00 0.00 0.00 49 1000.9
20260506151503 70 109 0.0 6.0 0.00 0.00 0.00 51 1001.0
20260506151004 69 144 4.0 4.0 0.00 0.00 0.00 53 1001.2
20260506150505 69 204 0.0 3.0 0.00 0.00 0.00 54 1001.2
20260506150003 69 204 0.0 10.0 0.00 0.00 0.00 52 1001.2
20260506145504 70 126 6.0 11.0 0.00 0.00 0.00 50 1001.3
20260506145001 71 160 8.0 11.0 0.00 0.00 0.00 48 1001.2
20260506144507 72 126 7.0 8.0 0.00 0.00 0.00 46 1001.1
20260506144003 72 163 2.0 14.0 0.00 0.00 0.00 44 1001.0
20260506143504 71 157 10.0 12.0 0.00 0.00 0.00 45 1001.3
20260506143004 71 169 7.0 14.0 0.00 0.00 0.00 45 1001.3
20260506142503 72 176 6.0 9.0 0.00 0.00 0.00 44 1001.2
20260506142004 73 102 0.0 12.0 0.00 0.00 0.00 43 1001.2
20260506141504 72 127 0.0 8.0 0.00 0.00 0.00 44 1001.2
20260506141006 71 144 6.0 10.0 0.00 0.00 0.00 45 1001.3
20260506140504 72 174 6.0 11.0 0.00 0.00 0.00 45 1001.4
20260506140005 72 144 4.0 9.0 0.00 0.00 0.00 45 1001.4
20260506135506 73 84 2.0 6.0 0.00 0.00 0.00 44 1001.3
20260506135005 71 60 3.0 7.0 0.00 0.00 0.00 45 1001.6
20260506134503 70 126 0.0 2.0 0.00 0.00 0.00 48 1001.9
20260506134001 70 132 1.0 3.0 0.00 0.00 0.00 49 1002.1
20260506133503 71 132 0.0 3.0 0.00 0.00 0.00 48 1002.0
20260506133004 71 92 0.0 1.0 0.00 0.00 0.00 48 1002.0
20260506132502 70 92 0.0 4.0 0.00 0.00 0.00 48 1002.1
20260506132004 70 144 5.0 7.0 0.00 0.00 0.00 48 1002.2
20260506131504 70 128 0.0 5.0 0.00 0.00 0.00 48 1002.4
20260506131003 70 110 3.0 9.0 0.00 0.00 0.00 47 1002.4
20260506130505 71 162 9.0 9.0 0.00 0.00 0.00 46 1002.3
20260506130005 71 61 0.0 1.0 0.00 0.00 0.00 45 1002.3
20260506125003 71 55 0.0 7.0 0.00 0.00 0.00 46 1002.6
20260506124505 71 84 1.0 13.0 0.00 0.00 0.00 45 1002.5
20260506124008 72 144 10.0 11.0 0.00 0.00 0.00 45 1002.6
20260506123505 71 126 1.0 8.0 0.00 0.00 0.00 46 1002.7
20260506123004 71 126 1.0 6.0 0.00 0.00 0.00 46 1002.9
20260506122506 70 132 0.0 9.0 0.00 0.00 0.00 46 1002.9
20260506122005 71 156 9.0 15.0 0.00 0.00 0.00 45 1002.9
20260506121503 70 166 3.0 6.0 0.00 0.00 0.00 46 1003.1
20260506121003 70 111 5.0 6.0 0.00 0.00 0.00 46 1003.2
20260506120506 70 121 2.0 4.0 0.00 0.00 0.00 46 1003.3
20260506120003 70 121 5.0 7.0 0.00 0.00 0.00 47 1003.3
20260506115503 70 169 9.0 10.0 0.00 0.00 0.00 45 1003.5
20260506115002 70 128 1.0 4.0 0.00 0.00 0.00 46 1003.5
20260506114503 70 154 0.0 5.0 0.00 0.00 0.00 46 1003.5
20260506114005 70 154 0.0 0.0 0.00 0.00 0.00 44 1003.5
20260506113506 70 154 0.0 5.0 0.00 0.00 0.00 46 1003.6
20260506113005 70 167 9.0 10.0 0.00 0.00 0.00 46 1003.7
20260506112506 70 161 3.0 6.0 0.00 0.00 0.00 45 1003.7
20260506112002 70 197 2.0 3.0 0.00 0.00 0.00 46 1003.8
20260506111503 71 197 2.0 2.0 0.00 0.00 0.00 45 1003.7
20260506111004 71 197 0.0 0.0 0.00 0.00 0.00 43 1003.7
20260506110504 71 197 0.0 2.0 0.00 0.00 0.00 43 1003.8
20260506110004 71 197 0.0 2.0 0.00 0.00 0.00 43 1003.8
20260506105502 70 252 2.0 7.0 0.00 0.00 0.00 45 1003.9
20260506105004 70 169 0.0 5.0 0.00 0.00 0.00 45 1003.9
20260506104505 71 169 0.0 3.0 0.00 0.00 0.00 43 1004.1
20260506104003 70 169 1.0 3.0 0.00 0.00 0.00 44 1004.1
20260506103504 70 169 0.0 3.0 0.00 0.00 0.00 46 1004.1
20260506103005 69 150 0.0 2.0 0.00 0.00 0.00 46 1004.2
20260506102504 69 150 2.0 7.0 0.00 0.00 0.00 47 1004.3
20260506102005 70 181 3.0 5.0 0.00 0.00 0.00 46 1004.1
20260506101502 69 162 2.0 9.0 0.00 0.00 0.00 47 1004.4
20260506101003 69 156 4.0 6.0 0.00 0.00 0.00 48 1004.4
20260506100505 70 162 1.0 4.0 0.00 0.00 0.00 47 1004.4
20260506100005 70 175 2.0 3.0 0.00 0.00 0.00 49 1004.5
20260506095504 69 176 2.0 2.0 0.00 0.00 0.00 50 1004.7
20260506095003 68 176 1.0 6.0 0.00 0.00 0.00 53 1004.7
20260506094504 68 191 0.0 3.0 0.00 0.00 0.00 56 1004.8
20260506094002 68 187 1.0 3.0 0.00 0.00 0.00 53 1004.9
20260506093503 68 187 2.0 3.0 0.00 0.00 0.00 54 1004.9
20260506093003 68 189 1.0 2.0 0.00 0.00 0.00 53 1005.0
20260506092506 68 156 0.0 5.0 0.00 0.00 0.00 54 1005.0
20260506092005 67 171 2.0 4.0 0.00 0.00 0.00 53 1005.3
20260506091504 66 161 2.0 5.0 0.00 0.00 0.00 56 1005.3
20260506091004 67 264 1.0 3.0 0.00 0.00 0.00 54 1005.4
20260506090505 65 150 6.0 7.0 0.00 0.00 0.00 58 1005.5
20260506090003 65 172 1.0 5.0 0.00 0.00 0.00 59 1005.4
20260506085508 65 172 0.0 6.0 0.00 0.00 0.00 58 1005.4
20260506085006 65 173 0.0 7.0 0.00 0.00 0.00 59 1005.5
20260506084504 65 174 2.0 7.0 0.00 0.00 0.00 59 1005.4
20260506084006 66 234 2.0 6.0 0.00 0.00 0.00 60 1005.4
20260506083503 65 248 0.0 2.0 0.00 0.00 0.00 61 1005.6
20260506083002 65 162 0.0 4.0 0.00 0.00 0.00 62 1005.7
20260506082503 64 162 2.0 7.0 0.00 0.00 0.00 62 1005.7
20260506082009 64 162 1.0 1.0 0.00 0.00 0.00 61 1005.7
20260506081503 65 162 0.0 1.0 0.00 0.00 0.00 59 1005.6
20260506081007 64 162 2.0 7.0 0.00 0.00 0.00 61 1005.7
20260506080505 63 148 3.0 8.0 0.00 0.00 0.00 64 1005.7
20260506073505 61 204 1.0 3.0 0.00 0.00 0.00 70 1006.1
20260506073006 62 204 0.0 3.0 0.00 0.00 0.00 69 1006.2
20260506072503 62 171 0.0 2.0 0.00 0.00 0.00 70 1006.1
20260506072003 61 168 3.0 6.0 0.00 0.00 0.00 71 1006.3
20260506071504 61 168 6.0 6.0 0.00 0.00 0.00 72 1006.4
20260506071002 61 228 0.0 2.0 0.00 0.00 0.00 72 1006.4
20260506070505 60 264 0.0 3.0 0.00 0.00 0.00 73 1006.4
20260506062503 59 248 0.0 6.0 0.00 0.00 0.00 81 1006.8
20260506062003 58 192 0.0 4.0 0.00 0.00 0.00 81 1006.7
20260506061504 57 192 1.0 2.0 0.00 0.00 0.00 83 1006.9
20260506061004 57 192 1.0 4.0 0.00 0.00 0.00 83 1006.8
20260506060506 57 198 0.0 3.0 0.00 0.00 0.00 84 1006.9